Location: Observatoire POLARIS
(46.3550°N, 73.3861°W)
Time: 16:13:21
(UTC-05:00)

OTV 5 (USA 277) - Visible Passes

Search period start: 18 January 2018 00:00
Search period end: 28 January 2018 00:00
Orbit: 404 x 417 km, 43.0° (Epoch: 07 September)

Date Brightness Start Highest point End Pass type
(mag) Time Alt. Az. Time Alt. Az. Time Alt. Az.
22 Jan ? 18:44:04 10° S 18:44:58 13° S 18:44:58 13° S visible
23 Jan ? 17:54:19 10° SSE 17:55:14 11° SSE 17:56:09 10° SE visible
23 Jan ? 19:28:52 10° SW 19:29:15 12° SW 19:29:15 12° SW visible
24 Jan ? 18:38:05 10° SW 18:40:43 26° SSE 18:40:43 26° SSE visible
25 Jan ? 17:47:28 10° SSW 17:50:01 20° SSE 17:52:08 12° ESE visible
25 Jan ? 19:23:41 10° WSW 19:24:54 20° WSW 19:24:54 20° WSW visible
26 Jan ? 18:32:44 10° WSW 18:35:55 38° SSE 18:36:18 37° SSE visible
27 Jan ? 17:41:52 10° SW 17:44:56 32° SSE 17:47:40 12° ESE visible
27 Jan ? 19:18:41 10° WSW 19:20:26 26° WSW 19:20:26 26° WSW visible
